Location: Dumpton Point
(51.3500°N, 1.4433°E)
Time: 06:42:35
(UTC+00:00)

Envisat - Pass Details

Date: 10 December 2021
Orbit: 764 x 766 km, 98.2° (Epoch: 17 January)

Event Time Altitude Azimuth Distance (km) Brightness Sun altitude
Rises 03:27:51 0° 28° (NNE) 3,245 6.7 -39.2°
Reaches altitude 10° 03:31:20 10° 53° (NE) 2,312 6.1 -38.7°
Maximum altitude 03:34:01 14° 85° (E) 2,025 5.8 -38.3°
Drops below altitude 10° 03:36:41 10° 118° (ESE) 2,302 6.0 -37.9°
Sets 03:40:07 0° 142° (SE) 3,221 6.5 -37.3°
